Time,TemperatureF,DewpointF,PressureIn,WindDirection,WindDirectionDegrees,WindSpeedMPH,WindSpeedGustMPH,Humidity,HourlyPrecipIn,Conditions,Clouds,dailyrainin,SoftwareType,DateUTC
2013-05-09 00:01:00,63.5,58.2,30.12,WNW,296,0.0,23.0,83,0.00,,---,0.00,VWS V12.08,2013-05-09 04:01:00,
2013-05-09 00:02:00,63.4,58.5,30.12,WNW,296,0.0,23.0,84,0.00,,---,0.00,VWS V12.08,2013-05-09 04:02:00,
2013-05-09 00:07:00,63.0,58.1,30.12,WNW,296,0.0,23.0,84,0.00,,---,0.00,VWS V12.08,2013-05-09 04:07:00,
2013-05-09 00:12:00,62.7,58.1,30.12,WNW,296,0.0,23.0,85,0.00,,---,0.00,VWS V12.08,2013-05-09 04:12:00,
2013-05-09 00:17:00,62.5,58.3,30.12,WNW,296,0.0,23.0,86,0.00,,---,0.00,VWS V12.08,2013-05-09 04:17:00,
2013-05-09 00:22:00,62.2,58.0,30.12,WNW,296,0.0,23.0,86,0.00,,---,0.00,VWS V12.08,2013-05-09 04:22:00,
2013-05-09 00:27:00,62.0,57.8,30.12,WNW,296,0.0,23.0,86,0.00,,---,0.00,VWS V12.08,2013-05-09 04:27:00,
2013-05-09 00:32:00,61.6,57.4,30.12,WNW,296,0.0,23.0,86,0.00,,---,0.00,VWS V12.08,2013-05-09 04:32:00,
2013-05-09 00:37:00,61.6,58.0,30.12,WNW,296,0.0,23.0,88,0.00,,---,0.00,VWS V12.08,2013-05-09 04:37:00,
2013-05-09 00:42:00,61.5,57.9,30.12,WNW,296,0.0,23.0,88,0.00,,---,0.00,VWS V12.08,2013-05-09 04:42:00,
2013-05-09 00:47:00,61.4,57.8,30.12,WNW,296,0.0,23.0,88,0.00,,---,0.00,VWS V12.08,2013-05-09 04:47:00,
2013-05-09 00:52:00,61.2,57.9,30.11,WNW,296,0.0,23.0,89,0.00,,---,0.00,VWS V12.08,2013-05-09 04:52:00,
2013-05-09 00:57:00,60.9,57.3,30.11,WNW,296,0.0,23.0,88,0.00,,---,0.00,VWS V12.08,2013-05-09 04:57:00,
2013-05-09 01:02:00,60.7,57.4,30.11,WNW,296,0.0,23.0,89,0.00,,---,0.00,VWS V12.08,2013-05-09 05:02:00,
2013-05-09 01:07:00,60.4,57.2,30.11,WNW,296,0.0,23.0,89,0.00,,---,0.00,VWS V12.08,2013-05-09 05:07:00,
2013-05-09 01:12:00,60.1,56.8,30.11,WNW,296,0.0,23.0,89,0.00,,---,0.00,VWS V12.08,2013-05-09 05:12:00,
2013-05-09 01:17:00,59.8,56.6,30.11,WNW,296,0.0,23.0,89,0.00,,---,0.00,VWS V12.08,2013-05-09 05:17:00,
2013-05-09 01:22:00,59.7,57.4,30.11,WNW,296,0.0,23.0,92,0.00,,---,0.00,VWS V12.08,2013-05-09 05:22:00,
2013-05-09 01:27:00,59.6,56.7,30.11,WNW,296,0.0,23.0,90,0.00,,---,0.00,VWS V12.08,2013-05-09 05:27:00,
2013-05-09 01:32:00,59.5,56.6,30.10,WNW,296,0.0,23.0,90,0.00,,---,0.00,VWS V12.08,2013-05-09 05:32:00,
2013-05-09 01:37:00,59.5,56.9,30.10,WNW,296,0.0,23.0,91,0.00,,---,0.00,VWS V12.08,2013-05-09 05:37:00,
2013-05-09 01:42:00,59.5,56.9,30.10,WNW,296,0.0,23.0,91,0.00,,---,0.00,VWS V12.08,2013-05-09 05:42:00,
2013-05-09 01:47:00,59.5,56.9,30.10,WNW,296,0.0,23.0,91,0.00,,---,0.00,VWS V12.08,2013-05-09 05:47:00,
2013-05-09 01:52:00,59.6,57.3,30.10,WNW,296,0.0,23.0,92,0.00,,---,0.00,VWS V12.08,2013-05-09 05:52:00,
2013-05-09 01:57:00,59.6,57.3,30.10,WNW,296,0.0,23.0,92,0.00,,---,0.00,VWS V12.08,2013-05-09 05:57:00,